Theta_e
348 350 350 348 348 348 350 352 352 352 351 350 349 348 348 348 347 346 347 348 349 349 349 349 348 346 349 346 347 346 346 346 345 345 345 345 344 343 344 344 344 344 346 348 349 348 347 347 348 346 346 348 346 345 343 346 347 345 343 344 344 343
345 350 350 349 348 349 350 350 349 349 349 349 349 349 347 345 347 344 347 346 347 348 348 347 347 350 346 347 346 347 346 345 345 345 344 345 345 344 343 344 344 344 343 347 349 346 346 348 348 347 346 348 345 344 344 346 347 343 342 343 344 344
345 348 351 350 350 350 348 348 348 348 348 350 348 347 345 344 342 341 343 344 345 346 346 346 347 348 348 349 347 347 346 345 345 344 344 344 345 344 344 343 343 342 343 346 347 345 344 344 343 347 347 347 345 345 346 346 344 342 342 343 343 345
344 347 349 350 349 349 347 346 348 348 347 348 347 346 344 344 340 339 338 341 343 344 344 347 347 351 350 348 347 347 346 346 345 345 344 343 345 344 344 344 344 343 345 340 339 338 341 345 341 341 345 343 343 344 345 346 346 341 342 344 343 345
346 347 348 351 350 348 348 346 348 347 347 347 346 346 346 345 341 339 338 341 340 342 341 344 345 347 347 346 346 345 344 343 342 342 344 342 341 339 343 335 334 341 337 333 332 333 338 345 345 339 340 341 343 344 343 345 345 342 342 342 343 344
349 348 348 350 350 349 348 345 347 347 347 347 347 347 347 345 342 342 339 339 339 341 342 342 341 342 346 344 344 343 343 342 342 340 343 340 340 338 337 334 332 331 331 332 330 330 335 340 340 340 337 340 344 343 342 344 343 342 341 342 342 344
349 349 349 351 351 349 347 348 348 349 347 347 347 347 346 345 343 344 341 339 340 339 340 341 337 341 342 344 342 342 342 341 340 338 342 339 339 339 336 333 333 332 331 330 330 330 333 338 339 336 338 342 344 344 343 344 344 341 341 341 342 343
349 349 349 350 350 349 348 348 348 348 348 347 347 347 346 345 344 345 344 341 344 339 338 344 339 340 340 343 342 342 341 340 339 338 341 338 337 338 336 333 332 333 331 329 328 331 333 336 334 334 337 340 341 340 341 344 344 342 340 340 340 341
347 348 349 351 348 349 349 348 348 348 348 349 348 347 345 345 343 343 346 344 344 344 340 342 340 339 340 341 342 342 341 338 338 338 342 337 335 338 338 334 331 332 333 332 332 339 333 333 335 333 336 338 340 338 340 340 341 343 338 339 338 339
348 347 349 350 347 349 349 348 348 348 348 348 348 349 348 345 343 341 344 344 344 347 342 340 341 340 338 340 341 342 341 339 339 341 341 333 334 338 341 337 335 334 333 338 330 339 335 338 332 339 340 340 341 338 339 339 340 339 337 336 335 336
347 348 349 347 348 350 349 349 348 349 350 347 349 350 346 345 342 342 344 347 345 345 345 345 341 341 338 342 342 344 344 344 342 344 345 336 337 341 342 339 336 338 337 333 330 336 333 339 336 338 340 341 339 338 337 338 339 338 335 334 334 334
347 349 348 347 347 349 349 349 350 348 348 348 350 348 345 349 341 343 343 345 346 344 345 345 346 343 340 344 342 343 346 347 345 347 347 342 341 344 342 338 337 339 342 340 342 341 340 341 343 341 340 340 341 338 341 338 339 339 334 333 332 332
348 349 348 347 347 350 348 349 348 348 348 350 349 347 346 347 344 344 345 343 346 344 346 346 349 346 343 343 344 344 344 345 345 345 349 347 341 350 347 347 346 346 342 341 339 341 344 340 339 340 340 340 342 340 339 339 340 341 336 332 331 330
348 349 348 349 349 350 348 348 348 348 348 349 348 346 346 349 346 344 346 343 345 343 346 347 348 346 346 344 345 344 342 344 345 346 344 345 347 345 343 343 344 342 343 340 341 344 342 340 340 341 342 341 341 342 338 337 339 336 337 332 331 330
348 348 348 349 348 349 349 346 346 345 347 348 347 345 345 346 344 343 342 343 344 343 345 346 348 346 346 344 343 341 341 342 342 344 342 348 347 343 342 342 342 339 342 338 341 341 343 340 340 338 339 341 341 342 341 334 335 335 333 332 331 330
348 348 347 349 347 349 347 348 345 347 348 347 345 344 344 344 342 341 342 342 344 343 343 344 346 346 347 343 341 339 342 341 343 341 344 345 344 340 339 342 343 339 335 339 339 339 342 340 338 338 340 340 340 340 337 334 333 335 332 331 330 330
347 346 347 348 347 348 348 346 345 345 348 346 345 344 342 343 342 340 343 342 343 343 340 343 345 343 345 345 341 340 342 343 346 341 347 348 341 344 348 344 342 339 338 339 340 338 340 340 338 338 338 338 338 337 335 341 334 333 331 325 326 325
346 346 347 347 346 347 348 345 345 345 347 345 344 344 341 341 341 339 343 341 342 342 338 343 344 343 346 349 346 343 345 347 348 349 348 351 348 350 350 343 335 338 341 340 339 338 338 338 338 337 337 337 336 335 335 336 336 336 331 326 327 324
346 346 346 347 347 347 347 346 346 345 346 345 344 343 343 341 340 338 342 342 341 342 341 344 344 344 348 348 347 348 349 349 349 350 347 347 346 347 349 344 336 336 340 342 340 340 338 337 336 336 335 334 335 336 336 338 340 337 331 325 324 326
346 345 345 346 345 343 343 341 340 341 342 342 342 342 343 342 341 336 343 341 341 343 341 346 344 347 349 348 347 348 349 351 349 349 347 344 343 344 345 342 336 334 337 338 341 340 341 338 336 334 334 335 336 336 335 336 336 333 327 326 323 327
345 345 343 342 342 341 339 338 339 338 339 341 340 341 341 343 338 336 341 342 342 346 341 345 345 345 347 349 348 349 350 349 348 345 346 345 347 347 343 341 340 338 337 334 336 339 341 337 333 330 332 332 332 336 336 335 334 332 327 325 323 323
344 345 344 343 342 342 341 339 338 337 340 340 339 338 338 342 339 337 342 343 343 345 343 345 345 344 347 348 347 348 348 348 347 345 347 348 347 347 345 341 336 333 337 336 335 336 336 337 329 326 324 325 328 331 334 334 332 331 331 324 324 323
344 345 344 344 343 342 343 343 340 339 340 340 340 341 339 342 341 336 341 343 346 344 344 344 345 344 346 347 347 347 346 347 347 347 346 346 346 345 345 343 339 335 332 336 336 337 337 336 330 329 327 324 321 321 325 327 330 331 330 327 323 321
345 345 344 344 344 345 345 346 345 343 342 341 338 340 344 344 343 336 337 342 346 344 344 343 343 343 343 345 347 347 347 346 347 347 346 345 345 345 342 343 342 340 335 330 331 333 338 337 331 328 321 322 322 321 317 320 323 327 330 326 325 321
345 344 345 345 345 345 345 345 344 344 343 344 344 340 341 339 342 336 335 339 341 345 344 343 343 342 341 345 347 347 346 346 347 347 347 345 343 344 343 341 342 340 337 333 330 331 332 337 337 333 331 324 321 319 318 321 322 324 327 324 323 324
345 345 345 346 346 345 344 342 342 340 336 336 337 336 335 336 339 335 332 337 339 344 344 342 343 342 341 344 346 347 347 345 346 347 346 345 345 346 344 341 341 340 339 337 332 330 331 336 338 335 335 334 332 324 324 322 322 316 325 326 324 323
345 345 347 347 346 345 343 342 341 339 338 336 337 338 340 343 341 338 338 338 339 343 343 342 342 342 342 342 346 346 347 346 346 347 346 345 344 346 345 343 342 341 340 338 334 328 329 332 335 336 336 336 335 334 334 324 319 320 315 321 324 321
346 345 346 347 345 345 343 342 341 339 339 338 339 339 340 342 345 342 340 340 339 342 342 342 342 341 342 343 344 346 346 346 345 345 344 343 344 346 346 344 344 342 341 340 338 334 333 333 331 331 335 334 334 334 334 331 330 325 320 315 315 322
346 346 346 346 344 345 345 344 342 340 339 340 340 342 342 342 344 344 341 341 338 338 340 341 341 342 341 342 343 344 345 345 345 344 343 343 344 346 346 343 343 342 341 340 340 339 336 334 334 332 332 332 333 332 331 331 331 329 322 319 317 316
347 346 346 347 345 345 346 345 343 341 341 340 340 342 342 341 343 344 341 340 339 338 338 340 340 340 341 341 343 343 344 344 345 344 342 343 343 344 345 344 344 342 341 340 341 338 336 336 334 334 334 333 330 329 328 327 325 324 323 322 318 316
348 348 346 347 346 345 346 345 343 342 342 341 340 341 341 341 342 343 342 340 340 339 339 340 342 341 341 342 344 343 343 344 345 344 343 342 342 343 345 344 344 343 342 340 339 338 337 336 335 336 335 333 330 329 326 323 323 323 321 319 318 318
348 348 347 348 347 346 346 345 345 344 343 343 342 340 341 340 341 342 342 340 341 340 340 342 342 342 342 343 344 343 344 344 343 344 343 344 344 343 345 344 344 342 341 340 340 338 337 335 336 335 334 334 333 332 331 327 328 328 324 321 322 320
346 348 348 348 348 346 346 345 345 344 344 345 344 341 341 342 342 342 342 342 341 339 340 340 341 341 342 343 343 343 343 343 343 344 344 344 344 343 344 343 342 342 341 340 339 338 337 336 336 334 334 335 335 333 332 332 331 330 329 328 326 321
346 348 348 347 347 346 345 345 346 345 345 345 345 343 343 342 343 343 343 343 341 340 340 340 341 341 342 343 343 344 344 344 345 345 344 344 343 343 344 342 341 341 340 340 340 339 338 338 338 337 337 334 333 332 331 332 331 330 328 327 324 322
346 347 347 347 347 346 345 345 346 346 346 346 345 344 344 344 344 343 343 343 343 343 342 342 342 343 343 343 343 344 344 344 344 344 344 344 344 343 344 342 341 340 340 341 340 339 338 338 335 335 334 333 333 332 331 332 332 331 330 328 327 325
345 346 346 346 347 347 346 346 347 347 347 346 345 346 345 345 346 345 345 344 345 344 344 344 344 344 344 343 343 343 343 343 344 345 344 344 343 342 342 341 339 340 340 341 338 339 337 336 335 335 334 333 332 331 332 333 332 331 331 331 330 329
345 345 345 346 346 347 348 347 348 349 349 347 346 345 345 345 346 347 346 346 346 345 346 345 344 344 344 344 343 343 342 342 344 345 344 343 343 342 342 340 339 339 338 337 337 336 336 335 335 335 335 334 332 332 333 333 332 332 333 331 330 329
Wind_Speed
12 14 12 10 8 9 12 16 14 16 16 15 15 14 13 13 11 11 10 11 10 8 6 6 10 9 12 9 11 10 11 10 9 8 7 5 4 3 2 2 3 3 2 4 4 4 4 3 4 2 1 5 8 2 3 2 2 2 5 5 6 6
11 14 12 10 8 7 10 13 12 11 12 12 13 13 10 8 10 7 11 8 6 7 7 6 7 9 8 9 10 11 11 10 9 8 7 5 3 3 3 3 2 3 3 4 5 3 3 4 3 2 1 3 4 2 3 1 2 2 6 6 5 7
13 14 14 11 9 8 13 10 12 11 10 12 11 11 9 10 8 8 9 8 6 5 7 8 7 8 7 11 10 12 11 11 10 9 8 6 3 4 4 4 4 4 4 4 4 4 4 5 4 4 0 1 4 1 0 1 1 4 5 6 4 10
15 14 14 10 9 9 9 10 8 9 8 9 9 9 10 10 9 9 8 6 5 5 5 5 10 15 11 9 8 12 12 11 10 9 9 5 5 5 6 5 6 5 3 4 3 5 4 3 5 4 2 4 2 1 1 2 2 4 4 6 7 10
13 12 12 10 10 10 10 9 9 9 9 9 9 8 8 8 7 9 8 6 6 5 5 5 6 6 5 6 7 6 7 6 4 5 8 4 4 5 4 5 4 4 3 5 5 5 4 3 2 6 7 3 2 0 0 3 3 4 5 5 6 10
14 12 11 10 11 10 11 9 10 9 9 9 9 9 7 7 7 8 8 8 8 6 6 4 6 6 6 7 8 6 7 6 6 6 7 5 4 4 5 5 5 5 5 5 6 6 6 8 8 6 10 4 2 0 1 1 3 5 4 4 6 10
13 12 11 12 10 10 10 8 9 9 9 9 9 9 8 7 7 8 9 9 8 7 6 5 7 6 6 5 7 6 7 6 6 6 6 6 6 5 5 5 5 5 6 7 8 8 7 8 8 8 9 5 4 3 2 2 3 4 4 5 6 10
14 12 9 12 11 10 9 9 10 10 9 9 9 8 9 8 8 8 9 9 7 7 6 4 6 5 5 4 6 7 6 6 7 6 6 7 6 5 6 6 6 6 8 9 10 10 4 4 4 12 12 6 4 4 3 3 2 4 5 5 5 9
16 14 10 9 11 9 9 8 8 9 8 10 8 8 8 8 8 8 8 8 6 5 5 4 4 5 4 5 6 6 6 7 7 7 7 8 7 6 6 6 6 7 8 8 6 1 3 3 5 10 9 8 5 7 4 2 2 3 5 5 5 7
16 13 10 9 7 9 8 7 10 9 7 9 7 6 7 5 6 7 6 6 6 5 5 6 4 5 7 6 6 7 7 7 7 6 6 7 7 5 5 5 6 6 3 2 4 2 4 1 8 10 7 7 2 5 6 5 3 3 6 5 6 6
15 11 9 9 6 8 8 6 9 7 6 8 7 6 5 4 5 5 4 5 5 5 5 5 6 5 6 5 4 4 4 5 5 4 4 7 6 5 4 4 4 3 3 3 5 4 5 10 8 5 8 9 5 2 5 5 4 6 7 7 5 5
13 11 10 10 7 7 8 7 7 7 7 7 7 5 5 3 6 6 6 5 4 5 5 5 6 7 7 4 4 4 3 2 3 2 3 4 4 5 4 4 4 4 3 3 1 7 9 7 7 7 6 9 6 4 3 4 5 5 5 7 7 6
14 12 11 9 7 5 8 7 7 6 7 7 5 5 4 3 5 5 6 8 5 7 6 6 5 6 6 4 5 4 3 3 3 4 2 3 6 2 1 2 2 1 3 3 5 5 7 7 5 6 5 5 5 6 6 5 3 5 3 9 6 6
12 13 12 8 7 3 6 6 7 5 6 6 5 5 4 3 5 5 5 9 7 7 6 6 5 5 4 5 4 4 4 4 3 4 3 4 2 2 2 2 1 0 2 4 7 4 5 6 5 4 4 3 3 3 4 4 5 2 5 6 7 7
12 12 12 9 8 6 5 5 6 6 7 6 6 5 5 4 5 5 5 7 8 7 7 6 5 5 4 4 4 5 5 4 4 3 4 2 2 3 3 2 1 2 2 6 5 3 4 5 5 5 3 2 2 2 2 6 7 7 7 7 7 8
12 12 12 9 9 6 6 5 6 6 6 7 6 6 6 4 6 6 6 7 8 8 8 6 5 6 5 4 5 5 5 5 4 4 3 3 3 3 4 3 2 7 2 4 2 3 2 4 4 4 3 2 1 0 3 5 7 6 7 5 8 7
12 13 11 10 10 7 7 7 7 7 7 8 6 6 6 5 7 6 6 8 9 8 9 7 6 6 6 4 5 5 4 5 4 4 3 3 5 3 1 3 9 4 5 3 2 3 3 3 4 3 3 1 1 1 4 1 3 4 3 6 4 4
11 12 10 10 10 8 6 7 6 6 8 8 7 6 7 6 6 6 6 8 9 7 9 7 7 7 6 4 4 5 4 4 4 4 3 2 2 1 1 7 8 4 2 4 2 2 3 3 3 3 2 1 1 5 5 2 3 2 3 4 3 4
12 11 10 9 9 7 5 6 6 6 8 9 6 7 6 6 6 7 6 8 10 8 8 8 8 8 6 4 3 3 3 5 5 4 5 4 3 3 2 9 9 3 2 1 2 3 3 4 4 3 2 2 4 3 1 1 0 0 2 4 4 3
9 11 9 8 8 7 6 7 7 7 7 8 7 7 7 6 7 7 6 8 10 9 9 8 9 8 7 6 5 4 3 4 5 4 5 5 5 5 4 7 10 7 4 2 3 3 2 4 4 3 1 2 1 1 0 0 0 3 3 4 4 2
10 11 10 10 9 9 9 9 8 8 8 8 7 7 7 5 8 7 7 9 11 8 10 8 9 7 6 6 5 4 5 5 4 4 5 5 4 4 6 5 7 3 5 6 3 2 2 4 5 4 2 1 2 1 1 1 2 5 4 4 4 3
12 12 11 11 10 10 9 9 8 8 7 8 9 9 8 6 8 8 7 8 11 9 10 8 7 8 6 6 6 5 5 5 5 6 5 5 4 4 7 8 9 6 4 4 4 4 4 4 3 5 5 2 1 1 2 2 4 6 2 5 6 5
12 12 11 11 11 11 9 8 8 8 8 8 9 8 8 7 7 9 6 7 8 10 10 8 8 8 7 7 6 5 7 6 5 5 5 5 5 6 5 7 10 11 7 3 2 2 6 5 4 5 4 3 3 3 3 3 5 6 6 3 6 6
13 12 12 12 11 10 9 8 8 8 8 9 9 9 7 7 7 9 8 8 7 9 9 8 9 8 8 7 7 6 5 7 6 5 5 5 5 5 6 5 6 7 9 5 3 5 6 5 3 6 6 6 6 6 4 8 8 7 6 5 4 6
14 13 12 12 12 10 10 8 9 7 7 5 6 8 8 8 7 8 7 8 8 10 9 8 9 9 8 7 7 6 5 6 6 6 5 5 5 6 6 6 7 7 9 8 5 4 4 6 8 8 5 5 3 4 6 4 8 4 5 5 6 4
13 13 13 13 12 11 11 11 10 10 11 10 8 10 11 10 9 9 9 8 9 9 10 9 8 10 9 7 8 8 6 6 6 6 6 5 5 5 6 7 7 7 7 9 8 5 4 5 6 9 7 4 1 2 1 6 7 4 5 3 4 6
14 13 12 12 14 10 11 11 12 11 10 12 10 8 7 6 8 9 7 9 9 8 10 10 8 9 8 8 7 7 7 6 6 6 6 5 5 6 5 6 6 7 6 7 11 9 9 7 5 6 7 6 3 3 2 4 4 4 4 4 5 6
13 13 13 14 15 13 12 12 11 11 9 10 10 9 10 8 7 9 9 10 9 8 10 10 9 9 9 8 8 8 7 6 5 6 6 6 5 5 5 5 5 6 6 6 8 9 9 8 8 6 5 5 4 3 3 3 1 1 2 5 4 3
16 14 13 15 16 16 13 12 11 10 10 9 10 8 9 9 7 9 10 8 10 10 10 10 10 9 9 9 8 8 8 8 7 6 7 6 5 6 6 6 6 5 6 5 6 6 7 7 7 5 4 6 4 4 3 3 3 4 2 2 5 7
16 14 13 14 15 17 15 11 11 12 12 11 10 8 9 10 9 9 10 10 10 9 9 8 9 10 9 10 9 8 8 9 8 7 6 6 6 6 6 5 6 6 5 5 4 7 6 6 5 4 5 4 4 3 3 3 5 4 3 4 3 4
15 14 15 16 17 18 16 14 13 14 14 13 13 11 10 11 10 9 10 11 10 9 9 10 9 9 10 9 8 9 8 8 8 7 6 7 6 6 6 6 5 7 6 6 6 6 5 6 5 5 6 5 5 5 6 5 3 3 3 3 4 5
13 15 16 16 17 18 15 14 13 14 14 13 13 12 12 13 13 11 10 10 9 9 9 9 10 9 10 10 8 8 8 8 8 8 7 5 5 5 6 5 5 6 6 6 5 6 5 6 6 5 4 4 5 5 4 5 4 4 5 4 3 3
16 14 14 16 17 17 15 15 15 15 14 12 12 13 12 11 12 11 11 10 10 10 10 10 10 10 9 11 9 9 9 8 7 8 7 7 5 6 6 6 6 6 6 6 6 6 6 5 5 5 5 3 3 4 4 3 3 3 3 4 5 3
17 17 15 16 17 16 16 16 16 15 15 13 12 12 11 11 12 10 11 11 11 11 11 11 10 11 10 11 9 9 9 8 7 7 8 8 6 6 6 6 6 6 6 6 5 7 6 5 5 4 3 4 4 4 4 3 4 3 3 2 2 2
17 16 16 16 15 17 16 15 15 15 14 13 12 12 11 10 11 12 11 11 11 11 10 10 10 9 10 10 10 10 10 10 9 7 8 8 7 6 6 7 6 6 6 5 5 6 5 6 6 5 4 4 4 4 5 6 4 4 3 4 4 4
20 19 18 17 16 16 16 15 15 15 16 15 13 11 10 9 10 12 11 12 11 11 10 9 9 9 10 10 10 11 11 11 9 9 8 9 8 7 7 8 6 6 7 5 6 7 6 6 5 6 6 6 6 6 6 5 4 4 4 3 2 2
20 19 20 19 17 16 17 16 16 15 14 15 14 13 13 14 12 12 11 11 10 11 10 9 9 9 10 10 10 10 11 11 11 10 9 9 9 9 8 8 7 8 7 7 7 7 6 6 7 6 5 6 6 5 3 3 3 4 4 2 2 2
Wind_Direction
161 158 152 156 159 158 157 154 151 153 148 148 149 150 151 152 152 158 157 156 151 156 160 161 161 169 166 168 173 174 170 168 174 175 173 180 187 185 186 162 143 122 138 155 150 138 146 135 121 129 213 82 77 46 51 10 318 46 77 89 97 100
165 157 161 158 158 161 158 158 154 157 155 151 151 151 153 157 163 161 167 164 169 167 162 182 179 169 173 176 175 172 174 176 173 178 182 178 198 204 203 203 191 180 177 177 172 175 153 158 147 171 207 80 64 47 58 349 293 87 88 85 98 113
166 166 162 159 158 157 161 166 159 163 161 158 157 156 161 166 164 167 176 174 188 188 178 176 179 170 188 172 174 174 173 180 178 182 184 191 208 221 226 224 220 216 207 199 203 231 175 166 171 173 224 108 68 16 104 233 81 70 83 96 97 115
169 169 163 162 157 154 163 171 160 165 163 164 161 170 169 170 176 164 177 175 192 196 201 172 186 181 194 172 163 174 174 179 187 185 189 194 215 236 234 244 241 231 213 218 220 231 200 155 157 158 149 75 101 65 8 313 61 92 108 110 111 113
166 169 168 160 159 158 168 172 165 169 168 168 172 179 171 181 181 165 163 169 196 207 206 183 181 173 182 175 157 176 174 183 185 196 194 204 196 207 196 217 212 207 221 220 219 224 197 121 60 168 85 341 83 201 174 5 52 82 78 94 111 118
159 172 172 157 161 161 169 173 171 171 166 170 175 182 169 183 191 160 155 169 188 202 204 202 173 173 190 180 164 182 181 189 189 204 180 212 205 200 179 216 205 193 210 231 222 220 197 156 181 133 124 198 142 70 35 63 71 86 92 106 117 120
160 170 174 161 163 162 173 177 167 172 167 172 175 178 171 185 185 158 157 170 194 180 204 214 163 178 198 179 168 184 185 195 201 203 171 195 217 199 184 205 218 191 202 222 233 223 216 165 165 123 97 174 143 153 119 97 88 106 120 104 117 119
161 171 174 168 164 165 178 170 172 170 174 169 173 181 171 187 179 164 165 171 185 169 198 216 163 172 186 193 182 195 181 193 209 203 178 188 209 209 189 197 224 202 201 217 230 230 188 127 110 97 138 161 156 125 130 111 134 126 120 118 114 116
163 170 171 180 163 168 180 171 166 165 180 164 178 183 174 187 165 164 166 166 170 162 173 226 167 175 198 202 199 189 191 196 201 202 177 188 202 212 194 192 215 225 200 220 239 221 130 128 127 113 131 148 152 135 124 101 115 130 117 115 106 112
163 169 168 183 169 165 182 174 163 166 182 163 175 189 170 172 146 155 160 155 161 151 168 213 168 172 204 217 199 195 190 187 205 208 166 178 207 222 192 192 223 224 235 202 267 197 90 181 79 103 126 121 147 127 133 155 161 147 126 119 116 124
163 165 159 182 180 158 175 183 156 163 158 168 164 188 169 163 149 148 140 144 159 168 193 212 166 187 198 215 203 216 203 195 189 197 169 172 199 226 193 207 221 214 217 232 229 145 113 72 107 96 117 122 144 136 142 163 176 147 143 134 139 139
159 158 160 182 181 159 172 171 151 162 152 172 161 176 177 160 149 146 154 157 166 183 204 222 175 182 197 187 200 204 210 209 185 209 203 158 193 228 182 204 221 215 216 263 284 63 85 104 94 124 118 122 138 153 173 168 181 175 162 140 152 144
155 158 168 180 181 167 167 163 161 172 151 165 149 157 179 164 144 144 154 167 177 192 206 223 178 186 188 185 195 181 197 213 177 216 161 176 216 174 261 237 217 280 193 266 79 78 89 98 102 100 115 124 156 148 167 183 178 203 222 148 146 137
154 159 167 174 168 183 159 161 156 169 146 146 155 165 177 171 134 155 156 165 177 194 207 222 176 189 190 183 188 176 192 203 188 196 165 210 171 128 214 271 204 59 316 43 67 65 93 94 99 97 107 133 145 153 153 149 186 196 258 142 153 140
156 160 166 163 170 171 163 164 164 176 151 165 157 172 184 181 151 173 170 162 175 192 202 216 172 185 202 181 188 168 204 187 200 161 174 161 138 151 205 212 123 153 31 73 86 72 91 113 117 126 123 128 107 183 220 154 192 199 211 163 158 152
158 160 168 165 167 172 176 173 166 187 148 165 164 176 194 189 159 189 165 163 177 192 187 209 176 178 210 200 170 175 205 171 202 146 159 157 185 188 190 184 116 64 312 55 90 85 90 109 119 127 128 113 139 126 256 195 177 145 230 146 155 164
163 164 165 165 168 177 184 174 168 189 151 165 165 184 192 200 163 193 167 169 179 184 183 197 173 187 204 207 166 180 195 184 160 152 178 163 180 225 140 147 74 130 207 104 102 138 114 113 119 126 110 131 118 224 245 249 122 196 91 94 134 116
163 163 169 167 173 178 178 173 185 186 149 168 176 186 195 197 165 201 178 165 172 173 189 181 182 182 198 211 178 186 182 178 157 154 164 139 182 184 118 67 91 175 230 97 190 144 129 121 126 110 107 121 231 221 219 172 219 184 139 118 104 110
163 164 165 164 169 177 176 183 196 187 158 170 181 198 204 178 168 204 179 159 169 167 193 178 185 180 192 193 197 203 172 170 177 165 170 184 175 186 143 95 103 89 307 77 201 170 139 134 125 125 143 189 232 170 199 232 318 332 114 145 126 133
160 159 159 162 169 175 182 194 197 188 176 171 174 203 213 177 172 199 175 165 168 164 195 178 187 185 177 185 198 188 171 179 174 170 178 189 179 186 150 108 129 153 191 121 237 170 139 128 116 124 141 230 252 97 140 141 217 242 125 131 124 115
164 158 168 169 178 180 187 190 206 195 181 165 176 203 216 197 170 192 183 168 168 165 186 192 184 188 178 174 198 177 165 187 175 182 186 196 182 164 132 122 101 114 189 159 173 172 102 125 133 112 125 89 53 1 332 263 250 253 166 136 137 174
164 165 173 179 178 187 192 191 192 195 172 169 179 199 209 208 169 183 189 177 166 168 182 190 186 183 184 178 191 175 174 183 189 187 185 184 191 158 150 151 129 155 244 176 152 167 169 150 149 147 144 121 79 358 320 306 271 271 229 156 151 192
169 167 173 179 185 189 187 191 194 194 176 167 188 204 205 208 166 176 184 180 162 172 179 189 189 179 188 184 186 191 179 184 197 187 177 189 184 174 161 158 149 144 182 182 124 156 188 197 148 155 134 129 183 176 245 258 266 262 260 181 163 182
168 170 173 183 190 188 188 193 196 199 185 178 185 191 213 199 171 172 180 180 166 175 179 188 187 186 192 188 182 202 183 179 188 194 182 183 184 180 166 161 149 143 141 163 155 181 196 170 187 144 169 202 177 186 187 221 208 228 239 204 211 178
170 171 175 182 187 181 184 194 203 197 176 196 172 182 210 193 187 170 172 183 182 174 181 187 185 192 192 184 185 198 196 183 182 191 184 186 191 185 176 172 164 159 160 158 165 198 214 203 202 180 156 178 143 213 234 178 179 202 227 199 210 194
166 169 175 178 184 186 181 194 198 184 179 188 190 185 202 188 180 175 180 176 189 179 184 189 190 192 192 186 184 194 200 189 182 187 192 194 185 184 183 180 177 167 169 153 149 196 208 219 208 194 219 207 151 177 217 135 168 185 204 215 206 196
168 169 168 173 183 186 189 199 201 195 186 185 191 193 192 194 177 174 182 175 187 183 187 189 197 190 191 189 184 187 199 201 181 188 186 196 193 186 187 185 168 171 176 159 150 184 198 197 214 218 216 223 195 195 233 152 208 114 171 215 243 186
170 169 173 172 182 191 194 199 194 194 190 190 201 188 183 200 177 169 184 174 186 186 188 191 195 195 193 189 184 183 193 198 194 188 190 201 198 184 180 183 174 170 177 172 163 166 180 180 191 201 204 217 219 202 237 269 315 181 173 171 230 214
166 168 173 174 181 192 196 194 191 188 189 195 200 195 181 193 185 171 179 173 181 187 189 191 191 198 194 195 186 184 188 190 202 199 186 197 196 187 186 177 168 170 175 170 166 153 158 174 181 182 189 208 196 198 208 206 228 178 190 219 194 187
168 168 173 176 183 193 197 186 184 192 194 191 194 199 180 187 189 174 182 175 180 188 185 191 191 196 198 199 187 187 191 191 194 207 186 195 195 188 181 186 170 172 175 169 152 154 165 160 170 191 203 183 182 197 221 235 215 204 226 218 250 181
176 170 174 181 184 191 197 185 185 191 197 195 189 197 184 182 187 184 188 178 181 183 182 187 191 190 196 200 185 187 196 196 189 201 197 191 195 187 175 184 170 170 177 179 156 164 162 160 172 194 197 184 189 189 198 202 219 199 205 216 199 244
187 181 177 183 187 193 193 184 184 189 199 201 189 195 191 182 184 189 187 184 181 180 184 184 190 191 191 195 185 185 195 202 193 193 201 197 185 184 166 176 174 172 178 181 163 163 172 177 180 183 200 195 206 224 211 190 204 198 187 225 240 247
185 190 185 185 189 194 191 183 183 191 198 203 198 196 194 187 182 186 184 188 184 184 183 188 187 192 192 191 187 184 191 200 195 188 192 195 188 182 168 171 177 176 179 183 171 168 175 185 187 188 195 189 217 229 234 202 209 209 198 208 197 246
186 187 191 192 190 194 197 188 185 188 193 197 198 195 197 192 183 186 184 188 184 184 188 194 185 191 190 194 192 184 187 196 202 188 186 190 190 185 166 173 176 180 183 186 177 177 180 181 186 188 180 192 208 225 244 228 211 210 232 226 216 217
185 186 193 196 195 195 197 196 190 188 189 194 196 193 195 192 185 188 187 190 184 185 191 192 191 184 188 199 194 185 187 195 199 199 184 185 188 182 166 175 175 179 179 176 182 172 180 172 187 196 201 203 219 218 230 228 204 213 210 210 201 198
187 187 189 194 198 197 198 199 198 193 187 188 194 193 194 191 191 191 187 189 184 183 188 186 189 183 190 197 198 190 187 194 193 198 187 183 183 187 175 173 175 178 180 173 181 179 187 188 195 200 204 202 209 220 218 209 197 204 222 224 225 211
188 189 191 193 195 195 198 199 201 200 190 186 189 192 194 196 195 185 186 185 183 184 183 186 188 187 187 196 200 196 191 192 192 195 192 184 184 186 179 176 176 176 183 181 183 188 187 193 195 199 195 199 211 215 218 216 210 204 190 206 234 240